{"data":{"norad_id":59299,"epoch":"2026-05-25T01:23:56.403744Z","epoch_age_seconds":65912,"freshness":"FRESH","line1":"1 59299U 24056D   26145.05829171 -.00001355  00000+0 -39745-4 0  9999","line2":"2 59299  43.0008 152.5260 0001011 264.2534  95.8203 15.27581171123035","mean_motion":15.27581171,"eccentricity":0.0001011,"inclination_deg":43.0008,"raan_deg":152.526,"arg_perigee_deg":264.2534,"mean_anomaly_deg":95.8203,"bstar":-3.9745e-5,"rev_number":12303,"period_min":94.26667645146,"perigee_km":482.35192408682,"apogee_km":483.73925520644,"semimajor_km":6861.1825896466,"source":"CELESTRAK","updated_at":"2026-05-25T13:38:18.897922Z"}}